Location: *
(50.8160°S, 176.0219°W)
Time: 23:29:10
(UTC+00:00)

SMAP - Pass Details

Date: 19 May 2026
Orbit: 681 x 683 km, 98.1° (Epoch: 11 June)

Event Time Altitude Azimuth Distance (km) Brightness Sun altitude
Rises 17:49:11 0° 349° (N) 3,046 6.5 -14.0°
Reaches altitude 10° 17:51:37 10° 338° (NNW) 2,139 5.6 -13.6°
Maximum altitude 17:55:48 32° 275° (W) 1,192 3.8 -13.0°
Drops below altitude 10° 18:00:03 10° 212° (SSW) 2,167 5.2 -12.3°
Enters shadow 18:00:44 - 208° (SSW) 2,411 5.5 -12.2°
